[[{"header":{"parameterUnit":"m.s-1","parameterCategory":1,"la1":30.2991,"la2":30.254,"lo1":-89.0895,"lo2":-89.0444,"dy":0.0017,"dx":0.0017,"nx":28,"ny":28,"refTime":"2023-09-29T03:00:00:Z","depth":0,"parameterNumber":2,"parameterNumberName":"U-component_of_WINDS"},"data":[0,0,0,0,0,0,0,0,0,0,0,0,0,0,0,0,0,0,0,0,0,0,0,0,0,0,0,0,0,0,0,0,0,0,0,0,0,0,0,0,0,0,0,0,0,0,0,0,0,0,0,0,0,0,0,0,0,0,-3.5087,-3.5087,0,-3.5124,-3.5125,-3.5125,-3.5014,-3.5011,-3.5007,-3.5004,-3.5041,-3.5045,-3.5049,0,0,0,0,0,0,0,0,0,0,0,0,0,-3.4918,-3.4922,-3.5087,-3.5087,-3.5088,-3.5124,-3.5125,-3.5125,-3.5015,-3.5011,-3.5007,-3.5003,-3.504,-3.5045,-3.505,0,0,0,0,0,0,0,0,0,0,0,0,0,-3.4977,-3.4923,-3.5087,-3.5037,-3.5033,-3.5124,-3.5125,-3.5125,-3.5016,-3.5011,-3.5005,-3.5001,-3.5038,-3.5044,-3.505,-3.5191,0,0,-3.5069,-3.5072,0,0,0,0,0,0,0,0,-3.4974,-3.4984,-3.5044,-3.5041,-3.5036,-3.5059,-3.5079,-3.5147,-3.5017,-3.5022,-3.5004,-3.4998,-3.5051,-3.5056,-3.5074,-3.5192,-3.5194,-3.507,-3.5074,-3.5076,-3.5078,0,0,0,0,0,0,0,-3.497,-3.4981,-3.5102,-3.5045,-3.504,-3.5012,-3.5015,-3.5091,-3.5065,-3.5021,-3.5013,-3.5019,-3.5048,-3.5068,-3.5074,-3.5194,-3.507,-3.5075,-3.5079,-3.5081,-3.5428,-3.5434,0,0,0,0,0,0,-3.4973,-3.4979,-3.51,-3.5103,-3.4992,-3.502,-3.5023,-3.5057,-3.5064,-3.506,-3.5024,-3.5014,-3.506,-3.5067,-3.5075,-3.5239,-3.5076,-3.5082,-3.5086,-3.5423,-3.543,-3.5436,0,0,0,0,0,0,-3.497,-3.4985,-3.5099,-3.5039,-3.5051,-3.5028,-3.5068,-3.5061,-3.5081,-3.5065,-3.506,-3.5049,-3.5057,-3.5066,-3.5162,-3.5238,-3.5085,-3.509,-3.5417,-3.5425,-3.5433,-3.5568,0,0,0,0,0,0,-3.4965,-3.4984,-3.5038,-3.5041,-3.5055,-3.5187,-3.5072,-3.5065,-3.5092,-3.508,-3.5088,-3.5085,-3.5053,-3.5154,-3.5169,-3.5244,-3.5095,-3.541,-3.542,-3.543,-3.5557,-3.558,-3.56,0,0,0,0,0,-3.496,-3.5074,-3.5041,-3.5056,-3.5121,-3.5191,-3.5199,-3.5161,-3.5098,-3.5152,-3.5142,-3.5084,-3.5228,-3.5165,-3.518,-3.5259,-3.5405,-3.5417,-3.5429,-3.5547,-3.5575,-3.5599,0,0,0,0,0,0,-3.508,-3.5074,-3.5037,-3.5156,-3.5175,-3.5172,-3.5238,-3.5192,-3.5229,-3.5216,-3.5167,-3.517,-3.5275,-3.5277,-3.5206,-3.5395,-3.5305,-3.5322,-3.539,-3.5416,-3.5438,-3.5434,-3.5101,0,0,0,0,0,-3.5121,-3.5179,-3.517,-3.5276,-3.5287,-3.5262,-3.5291,-3.526,-3.5277,-3.5285,-3.5282,-3.5301,-3.535,-3.5383,-3.5428,-3.5557,-3.5556,-3.5619,-3.564,-3.5658,-3.5672,-3.5739,-3.5767,-3.5476,-3.5476,-3.5476,0,0,-3.5205,-3.5209,-3.5248,-3.53,-3.5311,-3.5372,-3.5269,-3.5337,-3.5381,-3.5295,-3.5385,-3.5384,-3.5402,-3.5515,-3.5565,-3.552,-3.5752,-3.5674,-3.5688,-3.5692,-3.5755,-3.5782,-3.5807,-3.5484,-3.5483,-3.5482,0,0,-3.5389,-3.5398,-3.5487,-3.55,-3.5519,-3.5501,-3.5522,-3.5527,-3.5523,-3.5613,-3.5549,-3.5601,-3.5687,-3.5702,-3.5721,-3.5912,-3.586,-3.5927,-3.604,-3.6106,-3.6129,-3.6149,-3.6216,-3.624,-3.5942,-3.5942,-3.5942,0,-3.5491,-3.558,-3.5538,-3.5611,-3.5635,-3.556,-3.5649,-3.5664,-3.5697,-3.5715,-3.5664,-3.577,-3.5777,-3.5892,-3.5939,-3.5957,-3.5979,-3.5926,-3.6129,-3.6149,-3.6167,-3.623,-3.6255,-3.595,-3.5949,-3.5948,-3.5948,0,-3.5704,-3.5767,-3.5836,-3.5869,-3.5902,-3.5982,-3.5952,-3.599,-3.5957,-3.5944,-3.6037,-3.6042,-3.6086,-3.6112,-3.608,-3.6222,-3.6194,-3.6137,-3.6046,-3.6203,-3.6261,-3.6285,-3.5962,-3.5959,-3.5956,-3.5954,0,0,-3.5964,-3.5973,-3.5999,-3.6013,-3.6028,-3.6075,-3.6153,-3.6196,-3.6229,-3.6254,-3.6317,-3.6392,-3.6339,-3.6361,-3.633,-3.6389,-3.6538,-3.6324,-3.6324,-3.6363,-3.6694,-3.6736,-3.6765,-3.6504,-3.6509,-3.6512,-3.6692,0,-3.6144,-3.6276,-3.6241,-3.6373,-3.643,-3.636,-3.6427,-3.6443,-3.6434,-3.648,-3.6469,-3.6523,-3.645,-3.6463,-3.6518,-3.6508,-3.6603,-3.6495,-3.6561,-3.6564,-3.6558,-3.6796,-3.684,-3.701,-3.6715,-3.6719,-3.6722,0,-3.6372,-3.6406,-3.6543,-3.6549,-3.6571,-3.6632,-3.6669,-3.6715,-3.6732,-3.672,-3.6745,-3.6703,-3.6778,-3.6688,-3.6791,-3.6718,-3.6743,-3.6743,-3.6748,-3.6752,-3.6652,-3.6805,-3.7063,-3.7088,-3.6758,-3.6755,-3.6752,0,-3.6546,-3.6626,-3.6719,-3.6733,-3.6742,-3.6786,-3.6792,-3.6804,-3.6832,-3.6864,-3.6882,-3.6923,-3.6945,-3.6977,-3.6947,-3.6884,-3.7054,-3.6962,-3.7046,-3.7047,-3.7084,-3.7082,-3.7349,-3.7103,-3.7103,-3.7102,-3.7102,0,-3.675,-3.6837,-3.6797,-3.6854,-3.6949,-3.6908,-3.7003,-3.7,-3.7011,-3.7066,-3.7008,-3.7061,-3.7018,-3.7066,-3.7043,-3.7131,-3.7142,-3.7135,-3.7127,-3.7139,-3.714,-3.7154,-3.7141,-3.7109,-3.7107,-3.7106,-3.7105,0,-3.6961,-3.6938,-3.7034,-3.7034,-3.7036,-3.7106,-3.7106,-3.7159,-3.7145,-3.7215,-3.7229,-3.7208,-3.7262,-3.7236,-3.7292,-3.7276,-3.739,-3.7367,-3.7384,-3.7378,-3.7464,-3.7456,-3.7748,-3.7784,-3.7516,-3.7519,-3.7521,0,-3.7092,-3.7157,-3.7165,-3.7197,-3.7207,-3.726,-3.7289,-3.7251,-3.7283,-3.7307,-3.7357,-3.7406,-3.7443,-3.7533,-3.7523,-3.7566,-3.7543,-3.7642,-3.7549,-3.7559,-3.7543,-3.7539,-3.7545,-3.7661,-3.7664,-3.7667,-3.7669,0,-3.7327,-3.7312,-3.7356,-3.7396,-3.7432,-3.7462,-3.7486,-3.7517,-3.7479,-3.7518,-3.7573,-3.7602,-3.766,-3.7709,-3.7747,-3.7752,-3.7704,-3.7699,-3.772,-3.7733,-3.7739,-3.7736,-3.7434,-3.7692,-3.7689,-3.7688,-3.7686,-3.7685,-3.7501,-3.7555,-3.7569,-3.7619,-3.7634,-3.7659,-3.7708,-3.7701,-3.7746,-3.779,-3.7765,-3.7829,-3.7844,-3.7889,-3.7901,-3.795,-3.791,-3.7942,-3.795,-3.7958,-3.7969,-3.7733,-3.7957,-3.7956,-3.7955,-3.7955,-3.7954,0,-3.7732,-3.7737,-3.7784,-3.7821,-3.7861,-3.7813,-3.7838,-3.7874,-3.7932,-3.795,-3.7988,-3.8051,-3.8099,-3.8092,-3.8136,-3.8177,-3.8156,-3.8189,-3.8185,-3.8187,-3.8002,-3.7979,-3.8205,-3.8205,-3.8205,-3.8205,-3.8205,-3.8205,-3.7856,-3.7946,-3.7933,-3.8029,-3.8033,-3.8096,-3.8114,-3.8136,-3.815,-3.8223,-3.8263,-3.8259,-3.8267,-3.8311,-3.8352,-3.8349,-3.8367,-3.8409,-3.8398,-3.8225,-3.82,-3.8176,-3.8154,-3.8413,-3.8414,-3.8578,-3.8579,-3.8581]},{"header":{"parameterUnit":"m.s-1","parameterCategory":1,"la1":30.2991,"la2":30.254,"lo1":-89.0895,"lo2":-89.0444,"dy":0.0017,"dx":0.0017,"nx":28,"ny":28,"refTime":"2023-09-29T03:00:00:Z","depth":0,"parameterNumber":3,"parameterNumberName":"V-component_of_WINDS"},"data":[0,0,0,0,0,0,0,0,0,0,0,0,0,0,0,0,0,0,0,0,0,0,0,0,0,0,0,0,0,0,0,0,0,0,0,0,0,0,0,0,0,0,0,0,0,0,0,0,0,0,0,0,0,0,0,0,0,0,0.4426,0.4426,0,0.4397,0.4396,0.4396,0.4387,0.4387,0.4388,0.4388,0.4354,0.4353,0.4352,0,0,0,0,0,0,0,0,0,0,0,0,0,0.4473,0.4472,0.4426,0.4426,0.4425,0.4397,0.4396,0.4396,0.4387,0.4387,0.4388,0.4388,0.4355,0.4354,0.4352,0,0,0,0,0,0,0,0,0,0,0,0,0,0.4449,0.4472,0.4426,0.4418,0.4417,0.4397,0.4396,0.4396,0.4387,0.4387,0.4388,0.4388,0.4355,0.4354,0.4352,0.4337,0,0,0.4347,0.4347,0,0,0,0,0,0,0,0,0.445,0.4447,0.4419,0.4418,0.4417,0.4396,0.44,0.4376,0.4387,0.4398,0.4388,0.4388,0.4368,0.4365,0.4359,0.4336,0.4334,0.4347,0.4346,0.4346,0.4345,0,0,0,0,0,0,0,0.4452,0.4448,0.4414,0.4419,0.4417,0.4415,0.4412,0.4396,0.4382,0.4397,0.4397,0.4393,0.4367,0.4361,0.4358,0.4334,0.4347,0.4346,0.4345,0.4344,0.4299,0.4298,0,0,0,0,0,0,0.4455,0.445,0.4415,0.4413,0.4435,0.4414,0.441,0.4402,0.4382,0.4379,0.4393,0.4393,0.4363,0.436,0.4357,0.4339,0.4346,0.4344,0.4343,0.4299,0.4299,0.4298,0,0,0,0,0,0,0.4456,0.4452,0.4416,0.4431,0.4427,0.4413,0.4404,0.4402,0.4395,0.4379,0.4376,0.4389,0.4363,0.4359,0.4343,0.4338,0.4343,0.4342,0.4299,0.4299,0.4298,0.4303,0,0,0,0,0,0,0.4458,0.4453,0.4447,0.4431,0.4426,0.4403,0.4404,0.4401,0.4393,0.4392,0.4374,0.4372,0.4363,0.4345,0.4341,0.4336,0.4341,0.43,0.4299,0.4299,0.4303,0.4303,0.4303,0,0,0,0,0,0.4459,0.4449,0.4447,0.4443,0.4419,0.4403,0.44,0.4391,0.4392,0.4387,0.4377,0.4372,0.4339,0.4344,0.4339,0.4333,0.43,0.4299,0.4299,0.4304,0.4303,0.4303,0,0,0,0,0,0,0.4463,0.4446,0.4444,0.4428,0.4417,0.4402,0.4394,0.4391,0.4378,0.4378,0.4367,0.4363,0.4347,0.4339,0.4344,0.4319,0.4319,0.4318,0.4325,0.4324,0.4324,0.4326,0.4339,0,0,0,0,0,0.4462,0.4451,0.4437,0.4424,0.4419,0.4408,0.44,0.4395,0.4383,0.4377,0.4366,0.4353,0.434,0.4332,0.4319,0.4302,0.4299,0.4296,0.4296,0.4296,0.4294,0.4286,0.4285,0.4296,0.4296,0.4296,0,0,0.4459,0.4449,0.4443,0.4425,0.4416,0.4405,0.4404,0.4391,0.4383,0.4375,0.436,0.4351,0.4336,0.432,0.4313,0.4312,0.429,0.4295,0.4295,0.4293,0.4285,0.4284,0.4283,0.4296,0.4296,0.4296,0,0,0.445,0.4441,0.443,0.4421,0.4408,0.4401,0.4398,0.4383,0.4378,0.4362,0.4357,0.4346,0.4324,0.4314,0.4306,0.4294,0.429,0.429,0.4288,0.428,0.4279,0.4278,0.4274,0.4273,0.4289,0.4289,0.4289,0,0.4448,0.4431,0.4424,0.4413,0.4405,0.44,0.4389,0.438,0.4363,0.4357,0.4358,0.4331,0.432,0.4302,0.43,0.4294,0.429,0.4292,0.428,0.4279,0.4278,0.4274,0.4273,0.4289,0.4289,0.4289,0.4289,0,0.443,0.4419,0.4412,0.4397,0.4389,0.4377,0.4368,0.4361,0.4356,0.4349,0.4334,0.4321,0.4306,0.4302,0.4297,0.4283,0.4284,0.4282,0.4283,0.4277,0.4274,0.4272,0.4289,0.4289,0.4289,0.4289,0,0,0.442,0.4403,0.4401,0.4395,0.438,0.4371,0.436,0.4347,0.4341,0.4329,0.4319,0.4302,0.4301,0.4292,0.4286,0.4279,0.4271,0.4278,0.4278,0.4277,0.4256,0.4258,0.4256,0.4269,0.4268,0.4268,0.4258,0,0.4409,0.4389,0.4383,0.4367,0.4357,0.4352,0.4342,0.4332,0.4326,0.4316,0.4308,0.4296,0.4295,0.429,0.4283,0.4274,0.4267,0.4274,0.4259,0.4258,0.4263,0.4254,0.4255,0.4245,0.4256,0.4256,0.4256,0,0.4392,0.4382,0.4365,0.4354,0.4349,0.4341,0.4329,0.432,0.4308,0.4304,0.4295,0.429,0.4278,0.428,0.4263,0.4269,0.4262,0.4257,0.4256,0.4254,0.4256,0.4251,0.4242,0.4241,0.4253,0.4254,0.4254,0,0.4387,0.4369,0.4357,0.4352,0.4338,0.4333,0.4326,0.4316,0.4309,0.4298,0.4293,0.4281,0.4274,0.4265,0.4256,0.4259,0.4241,0.4242,0.4236,0.4236,0.4232,0.4232,0.4221,0.4228,0.4228,0.4228,0.4228,0,0.4374,0.4364,0.4355,0.4347,0.4336,0.4329,0.4318,0.4312,0.4303,0.4293,0.4289,0.428,0.427,0.426,0.4253,0.4241,0.4238,0.4233,0.4232,0.4234,0.4234,0.4229,0.4229,0.4228,0.4228,0.4228,0.4228,0,0.4366,0.4359,0.4346,0.4335,0.4332,0.4324,0.4314,0.4307,0.4301,0.429,0.4286,0.4276,0.4265,0.4256,0.424,0.4236,0.4222,0.4221,0.4227,0.4226,0.4221,0.4221,0.4206,0.4204,0.4212,0.4212,0.4212,0,0.4358,0.435,0.4339,0.4334,0.4328,0.4318,0.4312,0.4305,0.4298,0.4286,0.428,0.4269,0.4259,0.424,0.4231,0.4219,0.4217,0.4213,0.4215,0.4218,0.4217,0.4218,0.4217,0.4212,0.4212,0.4212,0.4212,0,0.4345,0.4343,0.4334,0.4324,0.4317,0.4309,0.4301,0.4296,0.4288,0.428,0.4269,0.4262,0.4247,0.4236,0.4223,0.4216,0.4213,0.4212,0.421,0.4211,0.4215,0.4213,0.4226,0.4212,0.4212,0.4212,0.4212,0.4212,0.4337,0.433,0.4322,0.4312,0.4306,0.4299,0.4292,0.4286,0.4277,0.4265,0.4262,0.425,0.424,0.4224,0.4217,0.4207,0.4207,0.4204,0.4204,0.4203,0.4203,0.4217,0.4205,0.4205,0.4205,0.4205,0.4205,0,0.4323,0.4319,0.431,0.43,0.4293,0.4292,0.4283,0.4277,0.4267,0.4259,0.425,0.4238,0.4227,0.4218,0.4207,0.4201,0.4199,0.4198,0.4198,0.4197,0.4204,0.4207,0.42,0.42,0.42,0.42,0.42,0.42,0.4316,0.4305,0.4302,0.4288,0.4283,0.4273,0.4268,0.4262,0.4255,0.4242,0.4234,0.4229,0.422,0.4208,0.4199,0.4196,0.4192,0.4192,0.4189,0.4195,0.4196,0.4197,0.4199,0.4191,0.4191,0.4182,0.4182,0.4182]}]]